AirNav   Everest Fuels
 
 1164 users online  

MN01 Hammars Farm Airport
Ada, Minnesota, USA

GOING TO ADA?


FAA INFORMATION EFFECTIVE 01 DECEMBER 2022

Location

FAA Identifier: MN01
Lat/Long: 47-16-59.8850N 096-37-01.2600W
47-16.998083N 096-37.021000W
47.2833014,-96.6170167
(estimated)
Elevation: 886 ft. / 270 m (estimated)
Variation: 06E (1985)
From city: 4 miles SW of ADA, MN
Time zone: UTC -6 (UTC -5 during Daylight Saving Time)
Zip code: 56550

Airport Operations

Airport use: Private use. Permission required prior to landing
Activation date: 01/1961
Control tower: no
ARTCC: MINNEAPOLIS CENTER
FSS: PRINCETON FLIGHT SERVICE STATION
Attendance: UNATNDD
Wind indicator: no
Segmented circle: no

Nearby radio navigation aids

VOR radial/distance  VOR name  Freq  Var
FARr008/33.2FARGO VOR/DME116.2009E

Airport Services

Airframe service: NONE
Powerplant service: NONE

Runway Information

Runway N/S

Dimensions: 2500 x 75 ft. / 762 x 23 m
Surface: turf
RUNWAY N  RUNWAY S
Traffic pattern: leftleft

Airport Ownership and Management from official FAA records

Ownership: Privately-owned
Owner: FAY HAMMARBACK
1893 220 ST
HENDRUM, MN 56550
Phone 218-784-4826
Manager: FAY HAMMARBACK
1893 220 ST
HENDRUM, MN 56550
Phone 218-784-4826

Additional Remarks

FOR CD CTC MINNEAPOLIS ARTCC AT 651-463-5588.

Instrument Procedures

There are no published instrument procedures at MN01.

Some nearby airports with instrument procedures:

D00 - Norman County Ada/Twin Valley Airport (9 nm E)
3H4 - Hillsboro Municipal Airport (19 nm W)
KFAR - Hector International Airport (23 nm S)
04Y - Hawley Municipal Airport (26 nm SE)
KJKJ - Moorhead Municipal Airport/Florence Klingensmith Field (27 nm S)
 
Loc | Ops | Rwys | IFR | FBO | Links
Com | Nav | Svcs | Stats | Notes
Area around MN01 (Hammars Farm Airport)
 
Road maps at: MapQuest Bing Google
 
Aerial photo
No photo
 
Sectional chart

 
Airport distance calculator
Flying to Hammars Farm Airport? Find the distance to fly.

From to MN01

Sunrise and sunset
Times for 03-Dec-2022
 Local
(UTC-6)
 Zulu
(UTC)
Morning civil twilight07:2113:21
Sunrise07:5613:56
Sunset16:3722:37
Evening civil twilight17:1223:12

Current date and time
Zulu (UTC)  04-Dec-2022 02:09:43
Local (UTC-6)  03-Dec-2022 20:09:43
 
METAR
KFAR 
23nm S 
040153Z 17008KT 10SM CLR M13/M17 A3016 RMK AO2 SLP239 T11281172
KJKJ 
27nm S 
040155Z AUTO 16008KT 10SM CLR M13/M17 A3016 RMK AO2 TSNO
K3N8 
28nm E 
040155Z AUTO 19009KT 10SM CLR M14/M17 A3013 RMK AO2 T11441175
KCKN 
34nm N 
040155Z 19004KT 10SM M17/M19 A3016 RMK AO2
KFSE 
39nm NE 
040155Z AUTO 20008KT 10SM CLR M17/M19 A3013 RMK AO2
KDTL 
42nm SE 
040155Z AUTO 16005KT 10SM CLR M15/M18 A3013 RMK AO2
TAF
KFAR 
23nm S 
031722Z 0318/0418 20011KT P6SM BKN080 FM032200 20008KT P6SM SCT100 FM040800 24009KT P6SM FEW250 FM041200 23010KT P6SM FEW250 WS020/29035KT
NOTAMs
Click for the latest NOTAMs
NOTAMs are issued by the DoD/FAA and will open in a separate window not controlled by AirNav.

 

 
 

Would you like to see your business listed on this page?

 If your business provides an interesting product or service to pilots, flight crews, aircraft, or users of the Hammars Farm Airport, you should consider listing it here.  To start the listing process, click on the button below
 
Add a business
 

Other Pages about Hammars Farm Airport

Update a link
 
Copyright © AirNav, LLC. All rights reserved. Privacy Policy  Contact